{"data":{"norad_id":53435,"epoch":"2026-09-19T15:45:00.524448Z","epoch_age_seconds":148295,"freshness":"FRESH","line1":"1 53435U 22097AZ  26262.65625607  .00000030  00000+0  12039-4 0  9996","line2":"2 53435  53.1586 297.4605 0001436  44.8886 315.2232 15.34392162228269","mean_motion":15.34392162,"eccentricity":0.0001436,"inclination_deg":53.1586,"raan_deg":297.4605,"arg_perigee_deg":44.8886,"mean_anomaly_deg":315.2232,"bstar":1.2039e-5,"rev_number":22826,"period_min":93.848237475551,"perigee_km":461.74418849022,"apogee_km":463.7088844979,"semimajor_km":6840.8635364941,"source":"CELESTRAK","updated_at":"2026-09-20T09:00:40.232350Z"}}